Погода в Шэньчжэне

Китай     22°32′46″N   114°03′16″E
темп.,
°C
ветер,
м/с
пор.,
м/с
влажн.,
%
обл.,
%
осадки,
мм/ч
давл.,
гПа
погр.,
м
12 августа, пт
пт1223:00+27вюв478157 0.0 1010679
02:00+27юв3483100 0.1 1008335
05:00+26вюв238558 0.3 1008187
08:00+27вюв238134 2.8 1009465
11:00+27юв2382100 4.6 1009250
14:00+29ю447283 6.6 1008853
17:00+27юз4482100 0.6 1008446
20:00+27юв118295 0.7 1008198
13 августа, сб
сб1323:00+27юв128268 0.0 1009163
02:00+26в238499 0.0 1007177
05:00+26в018412 0.0 1008116
08:00+28всв01785 0.0 1009287
11:00+30юз226917 0.0 1009760
14:00+30ююз436992 0.7 1007791
17:00+30ююз4368100 0.1 1006541
20:00+29ю34775 0.1 1007404
14 августа, вс
вс1423:00+28ююв34815 0.0 1008374
02:00+28ююв238283 0.0 1007375
05:00+27юв128414 0.0 1007180
08:00+28ююв22807 0.3 1008376
11:00+30ююз336916 0.3 1008876
14:00+30ююз547022 0.3 1007773
17:00+30ю44729 0.5 1006703
20:00+29ююв45795 0.5 1007431
15 августа, пн
пн1523:00+28ююв35828 0.0 1008484
02:00+28ю348411 0.1 1007431
05:00+27ююв24867 1.5 1006267
08:00+28ю237919 2.7 1008591
11:00+30ююз437111 0.1 1008929
14:00+31ююз44669 0.1 1006839
17:00+30ю446810 0.0 1005692
20:00+29ю45770 0.0 1006497
16 августа, вт
вт1623:00+28ю45805 0.0 1008568
02:00+28ю348114 0.0 1007504
05:00+27ююз23822 0.5 1006274
08:00+28ю22774 0.7 1007594
11:00+30ююз32655 0.0 1008896
14:00+31ююз436323 0.0 1006826
17:00+30ю54671 0.0 1005693
20:00+29ю45750 0.0 1006488